Location: Muenchen
(48.1800°N, 11.5800°E)
Time: 00:05:52
(UTC+01:00)

Vanguard 2 Rocket - Visible Passes

Search period start: 18 December 2014 00:00
Search period end: 28 December 2014 00:00
Orbit: 554 x 3335 km, 32.9° (Epoch: 17 December)

Date Brightness Start Highest point End Pass type
(mag) Time Alt. Az. Time Alt. Az. Time Alt. Az.
18 Dec 11.5 16:28:32 10° W 16:40:56 22° SW 16:54:00 10° S visible
20 Dec 11.8 16:47:39 10° WSW 16:56:02 15° SW 17:04:49 10° SSW visible
23 Dec 10.1 07:12:47 10° SSE 07:15:56 13° SE 07:19:43 10° ESE visible
25 Dec 9.7 07:26:56 10° S 07:31:15 17° SE 07:37:03 10° ESE visible
